Terminal Aerodrome Forecast
Issued by NWS Mt. Holly, NJ

Home | Current Version | Previous Version | Text Only | Print | Product List | Glossary On
Versions: 1 2 3 4 5 6 7 8 9 10 11 12 13 14 15 16 17 18 19 20 21 22 23 24 25 26 27 28 29 30 31 32 33 34 35 36 37 38 39 40 41 42 43 44 45 46 47 48 49 50
000
FTAK31 PANC 012331
TAFABE
TAF
PABE 012331Z 0200/0224 28009KT P6SM OVC019
     FM020700 29008KT 6SM -RA BR BKN009
     FM021200 30007KT 2SM BR OVC005
     FM022000 32009KT P6SM BKN015
     FM022300 33010KT P6SM SCT015 BKN025=

USA.gov is the U.S. government's official web portal to all federal, state and local government web resources and services.